Location: �perlecques
(50.8057°N, 2.1521°E)
Time: 16:23:09
(UTC+00:00)

YUBILEINY - Pass Details

Date: 05 April 2023
Orbit: 1478 x 1508 km, 82.5° (Epoch: 01 June)

Event Time Altitude Azimuth Distance (km) Brightness Sun altitude
Rises 22:51:46 0° 348° (NNW) 4,649 ? -31.4°
Reaches altitude 10° 22:54:42 10° 345° (NNW) 3,668 ? -31.5°
Maximum altitude 23:03:19 62° 268° (W) 1,674 ? -31.9°
Enters shadow 23:05:08 53° 224° (SW) 1,808 ? -32.0°
